Regional Weather Roundup
Issued by NWS

Home | Current Version | Previous Version | Graphics & Text | Print | Product List | Glossary On
Versions: 1 2 3 4 5 6 7 8 9 10 11 12 13 14 15 16 17 18 19 20 21 22 23 24 25 26 27 28 29 30 31 32 33 34 35 36 37 38 39 40 41 42 43 44 45 46 47 48 49 50
263
ASUS45 KBOU 260507
RWRCO

WEATHER ROUNDUP FOR COLORADO
NATIONAL WEATHER SERVICE DENVER/BOULDER CO
1100 PM MDT THU AUG 25 2016

NOTE: "FAIR" INDICATES FEW OR NO CLOUDS BELOW 12000 FEET WITH NO
SIGNIFICANT WEATHER AND/OR OBSTRUCTIONS TO VISIBILITY.

COZ001>005-013-030-031-260600-
...NORTHWEST COLORADO...

CITY           SKY/WX    TMP DP  RH WIND       PRES   REMARKS
CRAIG          MOCLDY    58  38  47 S8        30.23S
HAYDEN         CLOUDY    55  37  50 SE16      30.26S
MEEKER         FAIR      53  41  63 W5        30.28R
MOUNT WERNER   NOT AVBL
STEAMBOAT SPGS MOCLDY    53  39  60 E6        30.29S
WALDEN         FAIR      52  32  46 S13G23    30.33S
$$

COZ006>008-011-260600-
...WEST CENTRAL VALLEYS...

CITY           SKY/WX    TMP DP  RH WIND       PRES   REMARKS
GRAND JUNCTION FAIR      59  50  72 SE13      30.21F
MONTROSE       LGT RAIN  55  49  80 SE21G28   30.32S
EAGLE          CLOUDY    50  45  81 N5        30.37S
RIFLE          FAIR      52  51  97 NE3       30.29S
DELTA          NOT AVBL
NUCLA          NOT AVBL
$$

COZ017>023-064>068-260600-
...SOUTHWEST COLORADO...

CITY           SKY/WX    TMP DP  RH WIND       PRES   REMARKS
DURANGO        FAIR      55  32  41 CALM      30.30R
CORTEZ         CLOUDY    55  52  89 NE5       30.29S
PAGOSA SPRINGS NOT AVBL
TELLURIDE      NOT AVBL
WOLF CREEK PAS RAIN      34  34 100 W25G35    30.59R WCI  21
$$

COZ009-010-012-014-032>034-037-058>063-260600-
...CENTRAL COLORADO...

CITY           SKY/WX    TMP DP  RH WIND       PRES   REMARKS
ASPEN          FAIR      45  41  86 SE3       30.38F
BUENA VISTA    NOT AVBL
COPPER MTN     LGT SNOW  37  34  87 MISG      30.55F
BERTHOUD PASS  HAZE      30  18  59 SE8       30.58S VSB 1/4 WCI  23
COTTONWOOD PAS CLOUDY    46  39  76 CALM      30.47S
GUNNISON       MOCLDY    48  41  76 N3        30.42S
KREMMLING      DRIZZLE   52  37  58 SW5       30.36S
LEADVILLE      CLOUDY    38  36  92 NW5       30.47F
MONARCH PASS   FOG       36  34  93 W21       30.67R VSB 1/4
SALIDA         CLOUDY    54  45  72 N5        30.44R
SUNLIGHT       CLOUDY    37  37 100 NW3       30.52S FOG
WILKERSON PASS DRIZZLE   37  36  93 SW5       30.56S
$$

COZ069>075-260600-
...SAN LUIS VALLEY/SANGRE DE CRISTO MOUNTAINS...

CITY           SKY/WX    TMP DP  RH WIND       PRES   REMARKS
ALAMOSA        CLOUDY    49  41  74 W5        30.32R
LA VETA PASS   FOG       43  41  93 NE12      30.49S VSB 1/4
SAGUACHE       MOCLDY    50  41  71 NW13      30.37R
$$

COZ035-036-038>040-260600-
...NORTHERN COLORADO FRONT RANGE...

CITY           SKY/WX    TMP DP  RH WIND       PRES   REMARKS
DENVER INTL AP MOCLDY    51  48  89 S9        30.25R
DMNS CITY PARK   N/A     57  49  75 E3G13     30.23F
AURORA         MOCLDY    53  50  90 SE9       30.26R
FRONT RANGE AP NOT AVBL
ERIE MUNI ARPT FAIR      55  50  83 CALM      30.22S
BOULDER MUN AP MOCLDY    55  50  82 CALM      30.22S
CENTENNIAL     MOCLDY    54  46  74 SE10      30.26S
BROOMFIELD     NOT AVBL
FORT COLLINS   FAIR      55  48  76 CALM      30.22S
LONGMONT       FAIR      57  52  82 CALM      30.24R
$$

COZ041-046-047-076>085-087-088-260600-
...PIKES PEAK/PALMER DIVIDE AND SOUTHERN FOOTHILLS...

CITY           SKY/WX    TMP DP  RH WIND       PRES   REMARKS
COLO. SPRINGS  CLOUDY    55  44  66 CALM      30.32R
A. F. ACADEMY  CLOUDY    48  46  95 N3        30.31S
SCHRIEVER AFB  NOT AVBL
ELLICOTT       FAIR     N/A N/A N/A SE8       30.29S
FALCON         NOT AVBL
FORT CARSON    CLOUDY    53  46  77 S5        30.29R
LIMON          FAIR      53  49  86 SW6       30.26S
MONUMENT HILL  FAIR      45  43  93 CALM      30.35R
TRINIDAD       CLOUDY    57  49  74 NW6       30.30S
$$

COZ042>045-048>051-090-091-260600-
...NORTHEAST COLORADO...

CITY           SKY/WX    TMP DP  RH WIND       PRES   REMARKS
GREELEY ARPT   FAIR      52  48  87 E3        30.22S
AKRON          CLOUDY    63  46  54 SE20      30.22R
BURLINGTON     FAIR      60  51  72 SE7       30.23S
WRAY           FAIR      61  46  59 S6        30.21R
STERLING       FAIR      63  46  55 S7        30.19R
HOLYOKE        FAIR      61  50  67 SE7       30.21R
FORT MORGAN    NOT AVBL
$$

COZ086-089-092>099-260600-
...SOUTHEAST COLORADO...

CITY           SKY/WX    TMP DP  RH WIND       PRES   REMARKS
PUEBLO         CLOUDY    61  54  77 CALM      30.24S
LA JUNTA       LGT RAIN  63  59  87 SE20      30.16F
LAMAR          FAIR      61  56  83 CALM      30.20R
SPRINGFIELD      N/A     59  58  96 SW3       30.24R
$$




USA.gov is the U.S. government's official web portal to all federal, state and local government web resources and services.